Kokomo, IN

3:39 PM EDT on July 25, 2017 (GMT -0400)
Kokomo Municipal

Weather History for KOKK - March, 2013

Change the Weather History Date:

Wednesday, March 27, 2013

  Actual Average (KGUS) Record (KGUS)
Temperature  
Mean Temperature 32 °F -  
Max Temperature 39 °F 52 °F 78 °F (2007)
Min Temperature 24 °F 34 °F 12 °F (2002)
Degree Days  
Heating Degree Days 34    
Moisture  
Dew Point 25 °F    
Average Humidity 74    
Maximum Humidity 93    
Minimum Humidity 60    
Precipitation  
Precipitation 0.00 in - - ()
Sea Level Pressure  
Sea Level Pressure 30.27 in    
Wind  
Wind Speed 10 mph (West)    
Max Wind Speed 15 mph    
Max Gust Speed 18 mph    
Visibility 10 miles    
Events      
Averages and records for this station are not official NWS values.
T = Trace of Precipitation, MM = Missing Value Source: NWS Daily Summary

Daily Weather History Graph

Daily Weather History Graph

Search for Another Location

Airport or City:

Trip Planner

Search our weather history database for the weather conditions in past years. The results will help you decide how hot, cold, wet, or windy it might be!

Date:

Astronomy

Mar. 27, 2013 Rise Set
Actual Time 6:35 AM CDT 7:03 PM CDT
Civil Twilight 6:08 AM CDT 7:31 PM CDT
Nautical Twilight 5:36 AM CDT 8:03 PM CDT
Astronomical Twilight 5:03 AM CDT 8:36 PM CDT
Moon 7:47 PM CDT (3/27) 6:26 AM CDT (3/27)
Length of Visible Light 13h 23m
Length of Day
12h 28m
Full, 100% of the Moon is Illuminated
Mar 27
Full
Apr 2
Last Quarter
Apr 10
New
Apr 18
First Quarter
Apr 25
Full

Hourly Weather History & Observations

Time (CDT) Temp. Windchill Dew Point Humidity Pressure Visibility Wind Dir Wind Speed Gust Speed Precip Events Conditions
12:15 AM 30.2 °F 20.8 °F 24.8 °F 80% 30.23 in 10.0 mi West 11.5 mph - N/A   Scattered Clouds
12:35 AM 30.2 °F 21.3 °F 26.6 °F 86% 30.23 in 10.0 mi West 10.4 mph - N/A   Mostly Cloudy
12:55 AM 28.4 °F 19.1 °F 24.8 °F 86% 30.23 in 10.0 mi West 10.4 mph - N/A   Clear
1:15 AM 28.4 °F 19.7 °F 21.2 °F 74% 30.23 in 10.0 mi WNW 9.2 mph - N/A   Clear
1:35 AM 28.4 °F 19.7 °F 24.8 °F 86% 30.24 in 10.0 mi WNW 9.2 mph - N/A   Partly Cloudy
1:55 AM 28.4 °F 19.7 °F 23.0 °F 80% 30.24 in 10.0 mi West 9.2 mph - N/A   Scattered Clouds
2:15 AM 28.4 °F 19.7 °F 23.0 °F 80% 30.23 in 10.0 mi West 9.2 mph - N/A   Partly Cloudy
2:35 AM 28.4 °F 19.7 °F 24.8 °F 86% 30.23 in 10.0 mi West 9.2 mph - N/A   Clear
2:55 AM 26.6 °F 16.8 °F 21.2 °F 80% 30.23 in 10.0 mi West 10.4 mph - N/A   Clear
3:15 AM 28.4 °F 19.7 °F 21.2 °F 74% 30.23 in 10.0 mi West 9.2 mph - N/A   Clear
3:35 AM 26.6 °F 16.2 °F 21.2 °F 80% 30.23 in 10.0 mi West 11.5 mph - N/A   Clear
3:55 AM 28.4 °F 19.1 °F 24.8 °F 86% 30.23 in 10.0 mi West 10.4 mph - N/A   Clear
4:15 AM 26.6 °F 16.8 °F 21.2 °F 80% 30.23 in 10.0 mi West 10.4 mph - N/A   Clear
4:35 AM 26.6 °F 16.8 °F 19.4 °F 74% 30.23 in 10.0 mi West 10.4 mph - N/A   Clear
4:55 AM 26.6 °F 15.7 °F 21.2 °F 80% 30.24 in 10.0 mi West 12.7 mph - N/A   Clear
5:15 AM 24.8 °F 14.0 °F 21.2 °F 86% 30.24 in 10.0 mi West 11.5 mph - N/A   Clear
5:35 AM 24.8 °F 14.6 °F 21.2 °F 86% 30.24 in 10.0 mi West 10.4 mph - N/A   Clear
5:55 AM 24.8 °F 15.3 °F 19.4 °F 80% 30.24 in 10.0 mi West 9.2 mph - N/A   Clear
6:15 AM 24.8 °F 15.3 °F 19.4 °F 80% 30.25 in 10.0 mi West 9.2 mph - N/A   Clear
6:35 AM 24.8 °F 15.3 °F 23.0 °F 93% 30.25 in 10.0 mi West 9.2 mph - N/A   Clear
6:55 AM 24.8 °F 15.3 °F 21.2 °F 86% 30.25 in 10.0 mi West 9.2 mph - N/A   Clear
7:15 AM 26.6 °F 16.8 °F 21.2 °F 80% 30.26 in 10.0 mi West 10.4 mph - N/A   Clear
7:35 AM 26.6 °F 17.5 °F 21.2 °F 80% 30.27 in 10.0 mi West 9.2 mph - N/A   Clear
7:55 AM 26.6 °F 17.5 °F 24.8 °F 93% 30.27 in 10.0 mi West 9.2 mph - N/A   Clear
8:15 AM 28.4 °F 19.7 °F 23.0 °F 80% 30.28 in 10.0 mi West 9.2 mph - N/A   Clear
8:35 AM 28.4 °F 19.1 °F 23.0 °F 80% 30.28 in 10.0 mi WNW 10.4 mph - N/A   Clear
8:55 AM 30.2 °F 20.8 °F 24.8 °F 80% 30.29 in 10.0 mi West 11.5 mph - N/A   Clear
9:15 AM 30.2 °F 20.8 °F 26.6 °F 86% 30.29 in 10.0 mi West 11.5 mph - N/A   Clear
9:35 AM 32.0 °F 22.5 °F 26.6 °F 80% 30.29 in 10.0 mi WNW 12.7 mph - N/A   Clear
9:55 AM 32.0 °F 23.6 °F 26.6 °F 80% 30.29 in 10.0 mi West 10.4 mph - N/A   Clear
10:15 AM 33.8 °F 25.3 °F 26.6 °F 75% 30.29 in 10.0 mi West 11.5 mph - N/A   Clear
10:35 AM 33.8 °F 25.8 °F 26.6 °F 75% 30.29 in 10.0 mi West 10.4 mph - N/A   Clear
10:55 AM 33.8 °F 26.4 °F 28.4 °F 81% 30.29 in 10.0 mi West 9.2 mph - N/A   Clear
11:15 AM 35.6 °F 29.2 °F 26.6 °F 70% 30.29 in 10.0 mi West 8.1 mph - N/A   Clear
11:35 AM 35.6 °F 28.6 °F 28.4 °F 75% 30.30 in 10.0 mi West 9.2 mph - N/A   Clear
11:55 AM 35.6 °F 27.5 °F 26.6 °F 70% 30.30 in 10.0 mi West 11.5 mph - N/A   Clear
12:15 PM 35.6 °F 27.5 °F 28.4 °F 75% 30.30 in 10.0 mi West 11.5 mph - N/A   Clear
12:35 PM 37.4 °F 29.8 °F 28.4 °F 70% 30.30 in 10.0 mi West 11.5 mph - N/A   Clear
12:55 PM 37.4 °F 30.3 °F 28.4 °F 70% 30.30 in 10.0 mi West 10.4 mph - N/A   Clear
1:15 PM 37.4 °F 29.3 °F 28.4 °F 70% 30.30 in 10.0 mi West 12.7 mph - N/A   Clear
1:35 PM 39.2 °F 31.6 °F 28.4 °F 65% 30.30 in 10.0 mi West 12.7 mph - N/A   Clear
1:55 PM 39.2 °F 31.6 °F 26.6 °F 61% 30.29 in 10.0 mi West 12.7 mph 18.4 mph N/A   Clear
2:15 PM 39.2 °F 31.2 °F 30.2 °F 70% 30.29 in 10.0 mi West 13.8 mph - N/A   Clear
2:35 PM 39.2 °F 31.2 °F 26.6 °F 61% 30.29 in 10.0 mi West 13.8 mph - N/A   Mostly Cloudy
2:55 PM 39.2 °F 31.2 °F 28.4 °F 65% 30.29 in 10.0 mi WNW 13.8 mph - N/A   Overcast
3:15 PM 37.4 °F 29.8 °F 28.4 °F 70% 30.28 in 10.0 mi West 11.5 mph - N/A   Overcast
3:35 PM 37.4 °F 29.3 °F 26.6 °F 65% 30.28 in 10.0 mi WNW 12.7 mph - N/A   Overcast
3:55 PM 37.4 °F 28.9 °F 26.6 °F 65% 30.28 in 10.0 mi WNW 13.8 mph - N/A   Overcast
4:15 PM 37.4 °F 28.9 °F 26.6 °F 65% 30.28 in 10.0 mi WNW 13.8 mph - N/A   Overcast
4:35 PM 39.2 °F 31.6 °F 26.6 °F 61% 30.27 in 10.0 mi WNW 12.7 mph - N/A   Mostly Cloudy
4:55 PM 39.2 °F 31.6 °F 26.6 °F 61% 30.28 in 10.0 mi West 12.7 mph - N/A   Clear
5:15 PM 39.2 °F 30.8 °F 26.6 °F 61% 30.28 in 10.0 mi West 15.0 mph - N/A   Clear
5:35 PM 37.4 °F 29.3 °F 24.8 °F 60% 30.28 in 10.0 mi West 12.7 mph - N/A   Mostly Cloudy
5:55 PM 37.4 °F 29.3 °F 26.6 °F 65% 30.28 in 10.0 mi West 12.7 mph - N/A   Overcast
6:15 PM 37.4 °F 30.3 °F 24.8 °F 60% 30.29 in 10.0 mi West 10.4 mph - N/A   Overcast
6:35 PM 35.6 °F 28.0 °F 26.6 °F 70% 30.29 in 10.0 mi West 10.4 mph - N/A   Overcast
6:55 PM 35.6 °F 29.2 °F 26.6 °F 70% 30.29 in 10.0 mi West 8.1 mph - N/A   Overcast
7:15 PM 35.6 °F 28.6 °F 24.8 °F 65% 30.29 in 10.0 mi West 9.2 mph - N/A   Overcast
7:35 PM 35.6 °F 28.6 °F 26.6 °F 70% 30.29 in 10.0 mi West 9.2 mph - N/A   Overcast
7:55 PM 35.6 °F 28.6 °F 24.8 °F 65% 30.29 in 10.0 mi West 9.2 mph - N/A   Overcast
8:15 PM 35.6 °F 28.6 °F 26.6 °F 70% 30.29 in 10.0 mi West 9.2 mph - N/A   Overcast
8:35 PM 35.6 °F 28.0 °F 24.8 °F 65% 30.29 in 10.0 mi West 10.4 mph - N/A   Overcast
8:55 PM 35.6 °F 28.6 °F 24.8 °F 65% 30.29 in 10.0 mi West 9.2 mph - N/A   Overcast
9:15 PM 35.6 °F 29.2 °F 24.8 °F 65% 30.30 in 10.0 mi West 8.1 mph - N/A   Overcast
9:35 PM 33.8 °F 27.0 °F 26.6 °F 75% 30.30 in 10.0 mi West 8.1 mph - N/A   Overcast
9:55 PM 33.8 °F 27.7 °F 26.6 °F 75% 30.30 in 10.0 mi West 6.9 mph - N/A   Overcast
10:15 PM 33.8 °F 28.6 °F 26.6 °F 75% 30.30 in 10.0 mi WNW 5.8 mph - N/A   Overcast
10:35 PM 33.8 °F 28.6 °F 24.8 °F 70% 30.30 in 10.0 mi NW 5.8 mph - N/A   Overcast
10:55 PM 32.0 °F 28.7 °F 24.8 °F 75% 30.30 in 10.0 mi WNW 3.5 mph - N/A   Partly Cloudy
11:15 PM 32.0 °F - 24.8 °F 75% 30.30 in 10.0 mi Calm Calm - N/A   Mostly Cloudy
11:35 PM 30.2 °F - 23.0 °F 75% 30.30 in 10.0 mi Calm Calm - N/A   Scattered Clouds
11:55 PM 30.2 °F - 24.8 °F 80% 30.30 in 10.0 mi Calm Calm - N/A   Mostly Cloudy